Retour au catalogue

ARIANE 5 DEB

SYLDA

ActifHEO
NORAD 41947·DEBRIS·🇫🇷 France

Lancé Feb 14, 2017 depuis Guiana Space Centre

Loading…

Prochains Passages (prochaines 24 heures)

TLE

FraisSource: Space-Track

Époque: Sep 14, 2026, 19:24 UTC

1 41947U 17007D   26257.80838772  .00251572  00000-0  49623-2 0  9993
2 41947   3.9493 293.9013 4206368 153.6815 235.7879  7.14961420119398

Suivez ARIANE 5 DEB en temps réel avec AllMySat

Download on the App Store